Location: Unspecified
(0.0000°N, 0.0000°E)
Time: 00:02:11
(UTC+00:00)

RS-15 - Pass Details

Date: 17 February 2026
Orbit: 1894 x 2150 km, 64.8° (Epoch: 7 March)

Event Time Altitude Azimuth Distance (km) Brightness Sun altitude
Rises 21:45:52 0° 182° (S) 5,409 10.5 -51.4°
Reaches altitude 10° 21:49:46 10° 172° (S) 4,374 9.9 -52.3°
Enters shadow 21:50:35 12° 170° (S) 4,171 9.8 -52.5°
